| time (UTC) | temp C | wind direction | speed KPH | gust KPH | rain 1hr cm | rain 24hr cm | rain mn cm | humidity % | barometer mb |
| 20260503220427 | 11 | 315 | 3.2 | 9.7 | 0.00 | 0.00 | 0.00 | 54 | 1015.7 |
| 20260503215917 | 11 | 315 | 3.2 | 4.8 | 0.00 | 0.00 | 0.00 | 54 | 1015.7 |
| 20260503215406 | 11 | 315 | 3.2 | 8.0 | 0.00 | 0.00 | 0.00 | 54 | 1015.8 |
| 20260503214856 | 11 | 315 | 3.2 | 6.4 | 0.00 | 0.00 | 0.00 | 54 | 1015.9 |
| 20260503214345 | 11 | 315 | 3.2 | 12.9 | 0.00 | 0.00 | 0.00 | 54 | 1015.9 |
| 20260503213835 | 11 | 315 | 3.2 | 6.4 | 0.00 | 0.00 | 0.00 | 54 | 1015.8 |
| 20260503213324 | 11 | 315 | 4.8 | 11.3 | 0.00 | 0.00 | 0.00 | 54 | 1015.8 |
| 20260503212814 | 11 | 315 | 3.2 | 8.0 | 0.00 | 0.00 | 0.00 | 54 | 1015.8 |
| 20260503212304 | 12 | 315 | 3.2 | 8.0 | 0.00 | 0.00 | 0.00 | 54 | 1015.8 |
| 20260503211242 | 12 | 315 | 3.2 | 8.0 | 0.00 | 0.00 | 0.00 | 54 | 1015.8 |
| 20260503210731 | 12 | 315 | 3.2 | 6.4 | 0.00 | 0.00 | 0.00 | 54 | 1015.7 |
| 20260503210221 | 12 | 315 | 3.2 | 8.0 | 0.00 | 0.00 | 0.00 | 54 | 1015.6 |
| 20260503205710 | 12 | 315 | 3.2 | 8.0 | 0.00 | 0.00 | 0.00 | 55 | 1015.8 |
| 20260503205200 | 12 | 315 | 3.2 | 8.0 | 0.00 | 0.00 | 0.00 | 55 | 1015.7 |
| 20260503204139 | 12 | 315 | 3.2 | 4.8 | 0.00 | 0.00 | 0.00 | 56 | 1016.0 |
| 20260503203628 | 12 | 315 | 3.2 | 6.4 | 0.00 | 0.00 | 0.00 | 57 | 1016.0 |
| 20260503203117 | 12 | 315 | 3.2 | 6.4 | 0.00 | 0.00 | 0.00 | 57 | 1016.0 |
| 20260503202607 | 12 | 315 | 3.2 | 6.4 | 0.00 | 0.00 | 0.00 | 57 | 1016.0 |
| 20260503201545 | 12 | 315 | 3.2 | 11.3 | 0.00 | 0.00 | 0.00 | 57 | 1016.0 |
| 20260503201035 | 12 | 315 | 3.2 | 8.0 | 0.00 | 0.00 | 0.00 | 57 | 1016.0 |
| 20260503200013 | 12 | 315 | 1.6 | 6.4 | 0.00 | 0.00 | 0.00 | 57 | 1016.1 |
| 20260503195503 | 12 | 315 | 3.2 | 6.4 | 0.00 | 0.00 | 0.00 | 57 | 1016.1 |
| 20260503194952 | 12 | 315 | 3.2 | 4.8 | 0.00 | 0.00 | 0.00 | 57 | 1016.1 |
| 20260503194441 | 12 | 315 | 1.6 | 4.8 | 0.00 | 0.00 | 0.00 | 56 | 1016.1 |
| 20260503193931 | 12 | 315 | 1.6 | 4.8 | 0.00 | 0.00 | 0.00 | 56 | 1016.2 |
| 20260503193420 | 12 | 315 | 3.2 | 6.4 | 0.00 | 0.00 | 0.00 | 55 | 1016.2 |
| 20260503192909 | 13 | 315 | 1.6 | 4.8 | 0.00 | 0.00 | 0.00 | 55 | 1016.2 |
| 20260503192359 | 13 | 315 | 3.2 | 4.8 | 0.00 | 0.00 | 0.00 | 55 | 1016.1 |
| 20260503191848 | 13 | 315 | 3.2 | 6.4 | 0.00 | 0.00 | 0.00 | 54 | 1016.2 |
| 20260503191337 | 13 | 315 | 1.6 | 4.8 | 0.00 | 0.00 | 0.00 | 53 | 1016.2 |
| 20260503190827 | 13 | 315 | 1.6 | 4.8 | 0.00 | 0.00 | 0.00 | 53 | 1016.2 |
| 20260503190316 | 13 | 315 | 3.2 | 8.0 | 0.00 | 0.00 | 0.00 | 52 | 1016.1 |
| 20260503185805 | 13 | 315 | 3.2 | 8.0 | 0.00 | 0.00 | 0.00 | 52 | 1016.0 |
| 20260503185254 | 13 | 315 | 3.2 | 6.4 | 0.00 | 0.00 | 0.00 | 51 | 1016.0 |
| 20260503184743 | 13 | 315 | 3.2 | 9.7 | 0.00 | 0.00 | 0.00 | 50 | 1016.0 |
| 20260503183722 | 14 | 315 | 1.6 | 4.8 | 0.00 | 0.00 | 0.00 | 49 | 1016.0 |
| 20260503183211 | 14 | 315 | 1.6 | 6.4 | 0.00 | 0.00 | 0.00 | 48 | 1015.9 |
| 20260503182700 | 15 | 315 | 3.2 | 9.7 | 0.00 | 0.00 | 0.00 | 48 | 1015.9 |
| 20260503182149 | 15 | 315 | 3.2 | 6.4 | 0.00 | 0.00 | 0.00 | 46 | 1015.8 |
| 20260503181638 | 15 | 315 | 3.2 | 4.8 | 0.00 | 0.00 | 0.00 | 45 | 1015.7 |
| 20260503181127 | 16 | 315 | 1.6 | 3.2 | 0.00 | 0.00 | 0.00 | 43 | 1015.8 |
| 20260503180616 | 16 | 315 | 3.2 | 11.3 | 0.00 | 0.00 | 0.00 | 42 | 1015.8 |
| 20260503180105 | 17 | 315 | 3.2 | 4.8 | 0.00 | 0.00 | 0.00 | 41 | 1015.8 |
| 20260503175554 | 18 | 315 | 3.2 | 6.4 | 0.00 | 0.00 | 0.00 | 40 | 1015.8 |
| 20260503175043 | 19 | 315 | 1.6 | 4.8 | 0.00 | 0.00 | 0.00 | 38 | 1015.7 |
| 20260503174531 | 20 | 315 | 3.2 | 8.0 | 0.00 | 0.00 | 0.00 | 36 | 1015.8 |
| 20260503174020 | 20 | 315 | 3.2 | 9.7 | 0.00 | 0.00 | 0.00 | 36 | 1015.7 |
| 20260503173509 | 21 | 315 | 1.6 | 8.0 | 0.00 | 0.00 | 0.00 | 34 | 1015.9 |
| 20260503172957 | 22 | 315 | 1.6 | 4.8 | 0.00 | 0.00 | 0.00 | 33 | 1015.8 |
| 20260503172445 | 22 | 315 | 3.2 | 6.4 | 0.00 | 0.00 | 0.00 | 33 | 1015.8 |
| 20260503171934 | 22 | 315 | 3.2 | 6.4 | 0.00 | 0.00 | 0.00 | 33 | 1015.8 |
| 20260503171422 | 22 | 315 | 3.2 | 6.4 | 0.00 | 0.00 | 0.00 | 32 | 1015.9 |
| 20260503170910 | 23 | 315 | 3.2 | 9.7 | 0.00 | 0.00 | 0.00 | 31 | 1015.7 |
| 20260503170358 | 23 | 315 | 4.8 | 8.0 | 0.00 | 0.00 | 0.00 | 31 | 1015.8 |
| 20260503160135 | 25 | 315 | 3.2 | 6.4 | 0.00 | 0.00 | 0.00 | 28 | 1016.0 |
| 20260503150934 | 25 | 315 | 4.8 | 11.3 | 0.00 | 0.00 | 0.00 | 30 | 1016.2 |
| 20260503150422 | 25 | 315 | 4.8 | 9.7 | 0.00 | 0.00 | 0.00 | 28 | 1016.3 |
| 20260503130956 | 23 | 315 | 3.2 | 4.8 | 0.00 | 0.00 | 0.00 | 34 | 1017.5 |
| 20260503130444 | 23 | 315 | 3.2 | 6.4 | 0.00 | 0.00 | 0.00 | 34 | 1017.4 |
| 20260503110515 | 20 | 315 | 4.8 | 9.7 | 0.00 | 0.00 | 0.00 | 41 | 1018.5 |
| 20260503100258 | 18 | 315 | 3.2 | 6.4 | 0.00 | 0.00 | 0.00 | 52 | 1019.2 |
| 20260503080858 | 12 | 315 | 3.2 | 6.4 | 0.00 | 0.00 | 0.00 | 71 | 1019.7 |
| 20260503072734 | 11 | 315 | 4.8 | 8.0 | 0.00 | 0.00 | 0.00 | 77 | 1019.7 |
| 20260503071713 | 10 | 315 | 3.2 | 8.0 | 0.00 | 0.00 | 0.00 | 76 | 1019.4 |
| 20260503071202 | 10 | 315 | 3.2 | 9.7 | 0.00 | 0.00 | 0.00 | 76 | 1019.5 |
| 20260503070652 | 10 | 315 | 4.8 | 9.7 | 0.00 | 0.00 | 0.00 | 76 | 1019.6 |
| 20260503054917 | 8 | 315 | 3.2 | 8.0 | 0.00 | 0.00 | 0.00 | 75 | 1018.7 |
| 20260503054406 | 8 | 315 | 3.2 | 6.4 | 0.00 | 0.00 | 0.00 | 75 | 1018.7 |
| 20260503053856 | 8 | 315 | 3.2 | 8.0 | 0.00 | 0.00 | 0.00 | 75 | 1018.7 |
| 20260503053346 | 8 | 315 | 1.6 | 4.8 | 0.00 | 0.00 | 0.00 | 76 | 1018.7 |
| 20260503052835 | 8 | 315 | 1.6 | 4.8 | 0.00 | 0.00 | 0.00 | 75 | 1018.7 |
| 20260503052325 | 8 | 315 | 1.6 | 4.8 | 0.00 | 0.00 | 0.00 | 75 | 1018.7 |
| 20260503051815 | 8 | 315 | 1.6 | 4.8 | 0.00 | 0.00 | 0.00 | 74 | 1018.7 |
| 20260503051305 | 8 | 315 | 1.6 | 3.2 | 0.00 | 0.00 | 0.00 | 73 | 1018.7 |
| 20260503050755 | 8 | 315 | 1.6 | 4.8 | 0.00 | 0.00 | 0.00 | 72 | 1018.7 |
| 20260503050244 | 7 | 315 | 1.6 | 6.4 | 0.00 | 0.00 | 0.00 | 71 | 1018.7 |
| 20260503045734 | 7 | 315 | 1.6 | 3.2 | 0.00 | 0.00 | 0.00 | 70 | 1018.7 |
| 20260503045224 | 7 | 315 | 1.6 | 1.6 | 0.00 | 0.00 | 0.00 | 69 | 1018.7 |
| 20260503044714 | 7 | 315 | 1.6 | 3.2 | 0.00 | 0.00 | 0.00 | 68 | 1018.7 |
| 20260503044204 | 7 | 315 | 1.6 | 4.8 | 0.00 | 0.00 | 0.00 | 68 | 1018.7 |
| 20260503043653 | 7 | 315 | 1.6 | 4.8 | 0.00 | 0.00 | 0.00 | 67 | 1018.7 |
| 20260503043143 | 7 | 315 | 1.6 | 4.8 | 0.00 | 0.00 | 0.00 | 66 | 1018.6 |
| 20260503042633 | 7 | 315 | 0.0 | 1.6 | 0.00 | 0.00 | 0.00 | 66 | 1018.7 |
| 20260503042123 | 7 | 315 | 1.6 | 6.4 | 0.00 | 0.00 | 0.00 | 65 | 1018.7 |
| 20260503041613 | 7 | 315 | 1.6 | 6.4 | 0.00 | 0.00 | 0.00 | 65 | 1018.8 |
| 20260503041102 | 7 | 315 | 1.6 | 4.8 | 0.00 | 0.00 | 0.00 | 63 | 1018.8 |
| 20260503040552 | 8 | 315 | 1.6 | 4.8 | 0.00 | 0.00 | 0.00 | 62 | 1018.9 |
| 20260503040042 | 8 | 315 | 1.6 | 6.4 | 0.00 | 0.00 | 0.00 | 60 | 1018.8 |
| 20260503035532 | 8 | 315 | 1.6 | 4.8 | 0.00 | 0.00 | 0.00 | 60 | 1018.8 |
| 20260503035021 | 8 | 315 | 1.6 | 3.2 | 0.00 | 0.00 | 0.00 | 59 | 1018.9 |
| 20260503034511 | 8 | 315 | 1.6 | 4.8 | 0.00 | 0.00 | 0.00 | 59 | 1018.9 |
| 20260503034001 | 8 | 315 | 1.6 | 6.4 | 0.00 | 0.00 | 0.00 | 58 | 1018.8 |
| 20260503033451 | 8 | 315 | 0.0 | 1.6 | 0.00 | 0.00 | 0.00 | 58 | 1018.8 |
| 20260503032940 | 8 | 315 | 0.0 | 1.6 | 0.00 | 0.00 | 0.00 | 58 | 1018.8 |
| 20260503032430 | 8 | 315 | 0.0 | 3.2 | 0.00 | 0.00 | 0.00 | 57 | 1018.7 |
| 20260503031920 | 8 | 315 | 0.0 | 1.6 | 0.00 | 0.00 | 0.00 | 56 | 1018.8 |
| 20260503031410 | 8 | 315 | 0.0 | 1.6 | 0.00 | 0.00 | 0.00 | 57 | 1018.8 |
| 20260503030859 | 8 | 315 | 0.0 | 1.6 | 0.00 | 0.00 | 0.00 | 56 | 1018.9 |
| 20260503030349 | 8 | 315 | 0.0 | 1.6 | 0.00 | 0.00 | 0.00 | 56 | 1018.8 |
| 20260503025839 | 8 | 315 | 0.0 | 1.6 | 0.00 | 0.00 | 0.00 | 56 | 1018.8 |
| 20260503025328 | 8 | 315 | 0.0 | 1.6 | 0.00 | 0.00 | 0.00 | 56 | 1018.8 |
| 20260503024818 | 8 | 315 | 0.0 | 1.6 | 0.00 | 0.00 | 0.00 | 56 | 1018.8 |
| 20260503024308 | 8 | 315 | 0.0 | 0.0 | 0.00 | 0.00 | 0.00 | 56 | 1018.8 |
| 20260503023757 | 9 | 315 | 0.0 | 0.0 | 0.00 | 0.00 | 0.00 | 56 | 1018.8 |
| 20260503023247 | 9 | 315 | 0.0 | 1.6 | 0.00 | 0.00 | 0.00 | 56 | 1018.8 |
| 20260503022737 | 9 | 315 | 0.0 | 1.6 | 0.00 | 0.00 | 0.00 | 56 | 1018.9 |
| 20260503022226 | 9 | 315 | 0.0 | 1.6 | 0.00 | 0.00 | 0.00 | 56 | 1019.0 |
| 20260503021716 | 9 | 315 | 0.0 | 3.2 | 0.00 | 0.00 | 0.00 | 56 | 1019.0 |
| 20260503021206 | 9 | 315 | 0.0 | 0.0 | 0.00 | 0.00 | 0.00 | 56 | 1019.1 |
| 20260503020655 | 9 | 315 | 0.0 | 1.6 | 0.00 | 0.00 | 0.00 | 56 | 1019.1 |
| 20260503020145 | 8 | 315 | 0.0 | 0.0 | 0.00 | 0.00 | 0.00 | 57 | 1019.2 |
| 20260503015635 | 8 | 315 | 0.0 | 0.0 | 0.00 | 0.00 | 0.00 | 57 | 1019.2 |
| 20260503015124 | 8 | 315 | 0.0 | 0.0 | 0.00 | 0.00 | 0.00 | 57 | 1019.2 |
| 20260503014614 | 8 | 315 | 0.0 | 1.6 | 0.00 | 0.00 | 0.00 | 57 | 1019.1 |
| 20260503014104 | 8 | 315 | 0.0 | 0.0 | 0.00 | 0.00 | 0.00 | 57 | 1019.2 |
| 20260503013554 | 8 | 315 | 0.0 | 1.6 | 0.00 | 0.00 | 0.00 | 58 | 1019.2 |
| 20260503013044 | 8 | 315 | 0.0 | 1.6 | 0.00 | 0.00 | 0.00 | 59 | 1019.2 |
| 20260503012533 | 8 | 315 | 0.0 | 1.6 | 0.00 | 0.00 | 0.00 | 58 | 1019.2 |
| 20260503012023 | 8 | 315 | 0.0 | 1.6 | 0.00 | 0.00 | 0.00 | 58 | 1019.2 |
| 20260503011512 | 8 | 315 | 0.0 | 0.0 | 0.00 | 0.00 | 0.00 | 57 | 1019.2 |
| 20260503011002 | 8 | 315 | 0.0 | 1.6 | 0.00 | 0.00 | 0.00 | 57 | 1019.2 |
| 20260503010452 | 8 | 315 | 0.0 | 0.0 | 0.00 | 0.00 | 0.00 | 57 | 1019.2 |
| 20260503005941 | 8 | 315 | 0.0 | 0.0 | 0.00 | 0.00 | 0.00 | 58 | 1019.2 |
| 20260503005431 | 8 | 315 | 0.0 | 0.0 | 0.00 | 0.00 | 0.00 | 57 | 1019.3 |
| 20260503004921 | 8 | 315 | 0.0 | 1.6 | 0.00 | 0.00 | 0.00 | 57 | 1019.4 |
| 20260503004410 | 8 | 315 | 0.0 | 1.6 | 0.00 | 0.00 | 0.00 | 56 | 1019.4 |
| 20260503003900 | 8 | 315 | 0.0 | 0.0 | 0.00 | 0.00 | 0.00 | 56 | 1019.4 |
| 20260503003350 | 8 | 315 | 0.0 | 0.0 | 0.00 | 0.00 | 0.00 | 56 | 1019.5 |
| 20260503002840 | 9 | 315 | 0.0 | 0.0 | 0.00 | 0.00 | 0.00 | 56 | 1019.6 |
| 20260503002329 | 9 | 315 | 0.0 | 0.0 | 0.00 | 0.00 | 0.00 | 55 | 1019.6 |
| 20260503001819 | 9 | 315 | 0.0 | 0.0 | 0.00 | 0.00 | 0.00 | 55 | 1019.6 |
| 20260503001309 | 9 | 315 | 0.0 | 1.6 | 0.00 | 0.00 | 0.00 | 56 | 1019.6 |
| 20260503000758 | 9 | 315 | 0.0 | 1.6 | 0.00 | 0.00 | 0.00 | 55 | 1019.7 |
| 20260503000248 | 9 | 315 | 0.0 | 3.2 | 0.00 | 0.00 | 0.00 | 55 | 1019.7 |
| 20260502235738 | 9 | 315 | 0.0 | 1.6 | 0.00 | 0.00 | 0.00 | 55 | 1019.7 |
| 20260502235227 | 9 | 315 | 0.0 | 0.0 | 0.00 | 0.00 | 0.00 | 54 | 1019.7 |
| 20260502234717 | 9 | 315 | 0.0 | 1.6 | 0.00 | 0.00 | 0.00 | 54 | 1019.8 |
| 20260502234206 | 9 | 315 | 0.0 | 0.0 | 0.00 | 0.00 | 0.00 | 54 | 1019.9 |
| 20260502233656 | 9 | 315 | 0.0 | 0.0 | 0.00 | 0.00 | 0.00 | 54 | 1019.9 |
| 20260502232635 | 9 | 315 | 0.0 | 1.6 | 0.00 | 0.00 | 0.00 | 54 | 1019.9 |
| 20260502232125 | 9 | 315 | 0.0 | 0.0 | 0.00 | 0.00 | 0.00 | 54 | 1020.0 |
| 20260502231104 | 10 | 315 | 0.0 | 0.0 | 0.00 | 0.00 | 0.00 | 53 | 1020.0 |
| 20260502230554 | 10 | 315 | 0.0 | 0.0 | 0.00 | 0.00 | 0.00 | 53 | 1020.0 |
| 20260502230044 | 10 | 315 | 0.0 | 1.6 | 0.00 | 0.00 | 0.00 | 53 | 1020.1 |
| 20260502225533 | 10 | 315 | 0.0 | 1.6 | 0.00 | 0.00 | 0.00 | 53 | 1020.1 |
| 20260502224512 | 10 | 315 | 0.0 | 1.6 | 0.00 | 0.00 | 0.00 | 53 | 1020.2 |
| 20260502224002 | 10 | 315 | 0.0 | 0.0 | 0.00 | 0.00 | 0.00 | 53 | 1020.2 |
| 20260502223452 | 10 | 315 | 0.0 | 1.6 | 0.00 | 0.00 | 0.00 | 53 | 1020.2 |
| 20260502222941 | 10 | 315 | 0.0 | 1.6 | 0.00 | 0.00 | 0.00 | 53 | 1020.3 |
| 20260502222431 | 10 | 315 | 0.0 | 0.0 | 0.00 | 0.00 | 0.00 | 52 | 1020.3 |
| 20260502221920 | 10 | 315 | 0.0 | 0.0 | 0.00 | 0.00 | 0.00 | 52 | 1020.4 |
| 20260502221410 | 10 | 315 | 0.0 | 0.0 | 0.00 | 0.00 | 0.00 | 51 | 1020.4 |